DW6386 Weather Reports


time (UTC)temp
C
wind
direction
speed
KPH
gust
KPH
rain 1hr
cm
rain 24hr
cm
rain mn
cm
humidity
%
barometer
mb
20260831111534 20 150 0.0 0.0 0.00 0.00 0.00 98 1018.5
20260831110031 20 150 0.0 0.0 0.00 0.00 0.00 98 1018.5
20260831104535 20 150 0.0 0.0 0.00 0.00 0.00 98 1018.3
20260831103028 20 150 0.0 0.0 0.00 0.00 0.00 98 1018.3
20260831101528 20 150 0.0 0.0 0.00 0.00 0.00 98 1018.2
20260831100025 20 150 0.0 0.0 0.00 0.00 0.00 98 1018.1
20260831094524 20 150 0.0 0.0 0.00 0.00 0.00 98 1018.0
20260831093023 20 150 0.0 0.0 0.00 0.00 0.00 98 1017.9
20260831091522 20 150 0.0 0.0 0.00 0.00 0.00 98 1017.8
20260831090020 20 150 0.0 0.0 0.00 0.00 0.00 98 1017.8
20260831084519 20 150 0.0 0.0 0.00 0.00 0.00 97 1017.8
20260831083018 20 150 0.0 0.0 0.00 0.00 0.00 98 1017.6
20260831081518 20 150 0.0 0.0 0.00 0.00 0.00 98 1017.6
20260831080015 20 150 0.0 0.0 0.00 0.00 0.00 97 1017.5
20260831074515 20 150 0.0 0.0 0.00 0.00 0.00 97 1017.6
20260831073017 20 150 0.0 0.0 0.00 0.00 0.00 97 1017.6
20260831071518 21 150 0.0 0.0 0.00 0.00 0.00 97 1017.7
20260831070012 21 150 0.0 0.0 0.00 0.00 0.00 97 1017.8
20260831064517 21 150 0.0 0.0 0.00 0.00 0.00 96 1017.8
20260831063018 21 150 0.0 0.0 0.00 0.00 0.00 96 1017.7
20260831061508 21 150 0.0 0.0 0.00 0.00 0.00 96 1017.9
20260831060006 21 150 0.0 0.0 0.00 0.00 0.00 96 1018.1
20260831054506 21 150 0.0 0.0 0.00 0.00 0.00 96 1018.0
20260831053004 21 150 0.0 0.0 0.00 0.00 0.00 95 1018.0
20260831051504 21 150 0.0 0.0 0.00 0.00 0.00 95 1017.9
20260831050001 21 150 0.0 0.0 0.00 0.00 0.00 95 1017.8
20260831044601 21 150 0.0 0.0 0.00 0.00 0.00 95 1017.7
20260831043100 21 150 0.0 0.0 0.00 0.00 0.00 94 1017.7
20260831041618 21 150 0.0 0.0 0.00 0.00 0.00 94 1017.6
20260831040054 21 150 0.0 0.0 0.00 0.00 0.00 94 1017.7
20260831034555 22 150 0.0 0.0 0.00 0.00 0.00 93 1017.8
20260831033108 22 150 0.0 0.0 0.00 0.00 0.00 92 1017.8
20260831031555 22 150 0.0 0.0 0.00 0.00 0.00 92 1017.8
20260831030052 22 150 0.0 0.0 0.00 0.00 0.00 92 1017.8
20260831024552 22 150 0.0 0.0 0.00 0.00 0.00 92 1017.7
20260831023055 22 150 0.0 0.0 0.00 0.00 0.00 91 1017.7
20260831021550 23 150 0.0 0.0 0.00 0.00 0.00 91 1017.7
20260831020050 23 150 0.0 0.0 0.00 0.00 0.00 90 1017.6
20260831014559 23 150 0.0 0.0 0.00 0.00 0.00 89 1017.4
20260831013056 23 150 0.0 0.0 0.00 0.00 0.00 88 1017.3
20260831011549 24 150 0.0 0.0 0.00 0.00 0.00 87 1017.2
20260831010106 24 150 0.0 0.0 0.00 0.00 0.00 86 1017.0
20260831004548 25 150 0.0 0.0 0.00 0.00 0.00 83 1016.8
20260831003059 25 150 0.0 0.0 0.00 0.00 0.00 81 1016.7
20260831001546 26 150 0.0 0.0 0.00 0.00 0.00 79 1016.6
20260831000049 27 150 0.0 0.0 0.00 0.00 0.00 77 1016.6
20260830234553 27 150 0.0 0.0 0.00 0.00 0.00 74 1016.6
20260830233045 28 150 0.0 0.0 0.00 0.00 0.00 72 1016.6
20260830231548 28 150 0.0 0.0 0.00 0.00 0.00 70 1016.6
20260830230048 29 150 0.0 0.0 0.00 0.00 0.00 68 1016.6
20260830224552 30 151 0.0 0.0 0.00 0.00 0.00 65 1016.4
20260830223044 30 150 0.0 0.0 0.00 0.00 0.00 63 1016.3
20260830221542 30 160 0.0 1.6 0.00 0.00 0.00 62 1016.4
20260830220040 30 120 0.0 1.6 0.00 0.00 0.00 57 1016.5
20260830214542 31 229 0.0 3.2 0.00 0.00 0.00 58 1016.5
20260830213039 31 344 1.6 4.8 0.00 0.00 0.00 59 1016.6
20260830211539 31 281 1.6 4.8 0.00 0.00 0.00 55 1016.6
20260830210044 32 239 0.0 3.2 0.00 0.00 0.00 55 1016.6
20260830204540 32 65 0.0 6.4 0.00 0.00 0.00 55 1016.6
20260830203035 32 40 0.0 8.0 0.00 0.00 0.00 53 1016.8
20260830201534 33 98 0.0 6.4 0.00 0.00 0.00 53 1016.9
20260830200030 33 314 1.6 6.4 0.00 0.00 0.00 54 1017.3
20260830194528 32 60 3.2 9.7 0.00 0.00 0.00 55 1017.5
20260830193025 32 260 0.0 6.4 0.00 0.00 0.00 58 1017.7
20260830191522 32 279 1.6 4.8 0.00 0.00 0.00 56 1018.0
20260830190020 32 250 0.0 6.4 0.00 0.00 0.00 56 1018.2
20260830184518 32 58 1.6 6.4 0.00 0.00 0.00 58 1018.5
20260830183015 32 306 1.6 6.4 0.00 0.00 0.00 58 1018.7
20260830181514 32 41 3.2 9.7 0.00 0.00 0.00 60 1018.9
20260830180012 31 63 1.6 8.0 0.00 0.00 0.00 61 1019.1
20260830174510 31 308 1.6 14.5 0.00 0.00 0.00 65 1019.3
20260830173015 31 50 3.2 6.4 0.00 0.00 0.00 62 1019.6
20260830171506 30 16 0.0 9.7 0.00 0.00 0.00 65 1019.7
20260830170006 30 65 1.6 11.3 0.00 0.00 0.00 68 1019.9
20260830164503 30 76 0.0 4.8 0.00 0.00 0.00 70 1020.1
20260830163102 29 60 3.2 9.7 0.00 0.00 0.00 72 1020.3
20260830161625 30 289 3.2 9.7 0.00 0.00 0.00 71 1020.3
20260830160055 28 53 1.6 11.3 0.00 0.00 0.00 74 1020.5
20260830154552 28 52 3.2 9.7 0.00 0.00 0.00 75 1020.4
20260830153052 27 65 1.6 3.2 0.00 0.00 0.00 77 1020.6
20260830151551 27 67 0.0 6.4 0.00 0.00 0.00 79 1020.6
20260830150107 28 60 1.6 4.8 0.00 0.00 0.00 78 1020.6
20260830144547 27 75 1.6 8.0 0.00 0.00 0.00 80 1020.5
20260830143048 27 275 0.0 4.8 0.00 0.00 0.00 81 1020.4
20260830141540 26 47 0.0 4.8 0.00 0.00 0.00 84 1020.4
20260830140037 25 72 0.0 3.2 0.00 0.00 0.00 89 1020.4
20260830134538 24 233 0.0 0.0 0.00 0.00 0.00 93 1020.4
20260830133030 23 234 0.0 1.6 0.00 0.00 0.00 95 1020.4
20260830131538 23 241 0.0 1.6 0.00 0.00 0.00 96 1020.3
20260830130025 23 148 0.0 0.0 0.00 0.00 0.00 98 1020.1
20260830124523 23 147 0.0 0.0 0.00 0.00 0.00 99 1020.0
20260830123020 22 147 0.0 0.0 0.00 0.00 0.00 99 1020.1
20260830121522 21 147 0.0 0.0 0.00 0.00 0.00 99 1019.8
20260830120016 20 147 0.0 0.0 0.00 0.00 0.00 99 1019.6
20260830114519 20 147 0.0 0.0 0.00 0.00 0.00 99 1019.5
20260830113014 20 147 0.0 0.0 0.00 0.00 0.00 99 1019.5